Notices

What's New in latest Release from April 7th, 2021:

- Updated Glossary, including Speed of Maximum Gust, and Total Hourly Precipitation

- Updated national and regional climate services offices contacts and prices information

- Addition of station inventory lists for 1981-2010, 1971-2000, and 1961-1990 Normals.

If you haven't already, please take our survey and provide feedback about our website: https://eccc.sondage-survey.ca/f/LanguageSelection.aspx?s=442ca660-fcf1-47c0-95a9-59707d6fd709

Hourly Data Report for April 11, 2021

KUGAARUK CLIMATE
NUNAVUT
Current Station Operator: ECCC - MSC

68°32'15.060" N
89°47'47.020" W
15.80 m
2303094
71407
NBB

Download Data

Hourly Data (April 2021)
Hourly Data Report for April 11, 2021
TIME
LST
Temp Definition
°C
Dew Point Definition
°C
Rel Hum Definition
%
Precip. Amount Definition
mm

Wind Dir Definition
10's deg

Wind Spd Definition
km/h
Visibility Definition
km
Stn Press Definition
kPa
Hmdx Definition


Wind Chill Definition


Weather Definition


00:00 -14.6 -17.0 81 0.0 32 20   101.11   -24 LegendNANA
01:00 -14.7 -17.3 80 0.2 29 18   101.22   -23 LegendNANA
02:00 -15.2 -17.8 80 0.0 27 12   101.31   -22 LegendNANA
03:00 -15.1 -17.6 81 0.0 26 15   101.37   -23 LegendNANA
04:00 -15.0 -17.3 83 0.0 26 13   101.47   -22 LegendNANA
05:00 -15.3 -17.8 81 0.0 26 15   101.58   -23 LegendNANA
06:00 -15.2 -18.4 76 0.2 28 10   101.67   -21 LegendNANA
07:00 -17.1 -20.5 75 0.0 25 25   101.76   -28 LegendNANA
08:00 -17.4 -20.6 76 0.0 25 23   101.84   -28 LegendNANA
09:00 -16.4 -19.7 75 0.0 24 18   101.92   -25 LegendNANA
10:00 -15.7 -20.1 69 0.0 27 23   101.95   -26 LegendNANA
11:00 -15.4 -19.6 70 0.0 25 23   102.02   -25 LegendNANA
12:00 -14.5 -18.8 70 0.0 25 21   102.07   -24 LegendNANA
13:00 -13.5 -17.3 73 0.0 26 14   102.16   -21 LegendNANA
14:00 -13.7 -17.8 71 0.0 30 15   102.26   -21 LegendNANA
15:00 -14.1 -17.8 73 0.0 27 15   102.32   -22 LegendNANA
16:00 -13.6 -17.3 74 0.0 28 10   102.42   -20 LegendNANA
17:00 -14.1 -17.2 78 0.0 27 11   102.48   -21 LegendNANA
18:00 -14.6 -17.3 80 0.0 29 11   102.53   -21 LegendNANA
19:00 -16.4 -19.2 79 0.0 31 4   102.62   -19 LegendNANA
20:00 -16.4 -19.2 79 0.0 31 8   102.67   -22 LegendNANA
21:00 -16.9 -19.8 79 0.0 32 14   102.74   -25 LegendNANA
22:00 -17.5 -20.4 78 0.0 32 16   102.82   -26 LegendNANA
23:00 -18.1 -21.2 77 0.0 32 19   102.88   -28 LegendNANA

Notes on Data Quality.

Legend

  • E = Estimated
  • M = Missing
  • NA = Not Available*
  • [empty] = Indicates an unobserved value
Date modified: